EN

Hourly Weather Abasolo

Today, 13 June, Sunday

Time Temperature Precipitation Wind Pressure Humidity
00:00 +19°C° 1.6 mm 1 mps 621 mmHg 88%
01:00 +19°C° 1.6 mm 1 mps 620 mmHg 88%
02:00 +19°C° 1.6 mm 1 mps 620 mmHg 88%
03:00 +19°C° 0.2 mm 1 mps 620 mmHg 87%
04:00 +19°C° 0.2 mm 1 mps 620 mmHg 87%
05:00 +19°C° 0.2 mm 1 mps 620 mmHg 87%
06:00 +19°C° 0.1 mm 1 mps 621 mmHg 82%
07:00 +19°C° 0.1 mm 2 mps 621 mmHg 78%
08:00 +20°C° 0.1 mm 2 mps 622 mmHg 73%
09:00 +21°C° 0.1 mm 2 mps 622 mmHg 67%
10:00 +24°C° 0.1 mm 2 mps 622 mmHg 60%
11:00 +25°C° 0.1 mm 3 mps 622 mmHg 54%
12:00 +26°C° 0.1 mm 2 mps 622 mmHg 52%
13:00 +26°C° 0.1 mm 2 mps 622 mmHg 50%
14:00 +26°C° 0.1 mm 2 mps 621 mmHg 48%
15:00 +26°C° 0.1 mm 3 mps 621 mmHg 49%
16:00 +26°C° 0.1 mm 3 mps 621 mmHg 50%
17:00 +26°C° 0.1 mm 3 mps 620 mmHg 52%
18:00 +24°C° 0.5 mm 3 mps 621 mmHg 59%
19:00 +23°C° 0.5 mm 2 mps 621 mmHg 67%
20:00 +20°C° 0.5 mm 2 mps 621 mmHg 74%
21:00 +20°C° 0.6 mm 2 mps 621 mmHg 76%
22:00 +20°C° 0.6 mm 2 mps 621 mmHg 79%
23:00 +19°C° 0.6 mm 2 mps 621 mmHg 81%

Tomorrow, 14 June, Monday

Time Temperature Precipitation Wind Pressure Humidity
00:00 +19°C° 0.4 mm 2 mps 621 mmHg 82%
01:00 +20°C° 0.4 mm 1 mps 621 mmHg 84%
02:00 +19°C° 0.4 mm 1 mps 620 mmHg 85%
03:00 +19°C° 0.1 mm 1 mps 620 mmHg 86%
04:00 +19°C° 0.1 mm 1 mps 620 mmHg 87%
05:00 +19°C° 0.1 mm 1 mps 620 mmHg 88%
06:00 +20°C° 0 mm 1 mps 621 mmHg 81%
07:00 +20°C° 0 mm 2 mps 621 mmHg 74%
08:00 +21°C° 0 mm 3 mps 622 mmHg 67%
09:00 +24°C° 0.1 mm 3 mps 622 mmHg 60%
10:00 +26°C° 0.1 mm 3 mps 622 mmHg 53%
11:00 +27°C° 0.1 mm 3 mps 622 mmHg 46%
12:00 +28°C° 0.1 mm 3 mps 622 mmHg 44%
13:00 +28°C° 0.1 mm 2 mps 621 mmHg 42%
14:00 +28°C° 0.1 mm 2 mps 620 mmHg 40%
15:00 +27°C° 0.1 mm 2 mps 620 mmHg 44%
16:00 +26°C° 0.1 mm 3 mps 620 mmHg 49%
17:00 +25°C° 0.1 mm 4 mps 620 mmHg 53%
18:00 +24°C° 0.1 mm 3 mps 620 mmHg 56%
19:00 +24°C° 0.1 mm 3 mps 621 mmHg 59%
20:00 +22°C° 0.1 mm 3 mps 621 mmHg 62%
21:00 +21°C° 0.1 mm 3 mps 621 mmHg 64%
22:00 +21°C° 0.1 mm 2 mps 621 mmHg 66%
23:00 +20°C° 0.1 mm 2 mps 621 mmHg 68%

Day after tomorrow, 15 June, Tuesday

Time Temperature Precipitation Wind Pressure Humidity
00:00 +20°C° 0 mm 2 mps 621 mmHg 70%
01:00 +19°C° 0 mm 2 mps 620 mmHg 72%
02:00 +19°C° 0 mm 2 mps 620 mmHg 74%
03:00 +19°C° 0 mm 1 mps 620 mmHg 76%
04:00 +19°C° 0 mm 1 mps 620 mmHg 78%
05:00 +18°C° 0 mm 1 mps 620 mmHg 80%
06:00 +20°C° 0 mm 1 mps 621 mmHg 71%
07:00 +21°C° 0 mm 2 mps 621 mmHg 63%
08:00 +22°C° 0 mm 3 mps 622 mmHg 55%
09:00 +25°C° 0 mm 3 mps 622 mmHg 47%
10:00 +27°C° 0 mm 4 mps 623 mmHg 40%
11:00 +29°C° 0 mm 4 mps 623 mmHg 33%
12:00 +29°C° 0 mm 4 mps 622 mmHg 31%
13:00 +30°C° 0 mm 4 mps 622 mmHg 29%
14:00 +31°C° 0 mm 3 mps 622 mmHg 27%
15:00 +30°C° 0 mm 4 mps 621 mmHg 29%
16:00 +29°C° 0 mm 4 mps 621 mmHg 31%
17:00 +28°C° 0 mm 4 mps 621 mmHg 33%
18:00 +26°C° 0 mm 5 mps 621 mmHg 38%
19:00 +25°C° 0 mm 5 mps 621 mmHg 43%
20:00 +22°C° 0 mm 5 mps 622 mmHg 48%
21:00 +21°C° 0 mm 4 mps 621 mmHg 52%
22:00 +20°C° 0 mm 3 mps 621 mmHg 57%
23:00 +19°C° 0 mm 2 mps 621 mmHg 61%

16 June, Wednesday

Time Temperature Precipitation Wind Pressure Humidity
00:00 +19°C° 0 mm 2 mps 621 mmHg 64%
01:00 +18°C° 0 mm 2 mps 620 mmHg 66%
02:00 +18°C° 0 mm 2 mps 620 mmHg 69%
03:00 +19°C° 0 mm 1 mps 620 mmHg 72%
04:00 +18°C° 0 mm 1 mps 620 mmHg 75%
05:00 +18°C° 0 mm 1 mps 620 mmHg 79%
06:00 +18°C° 0 mm 2 mps 621 mmHg 69%
07:00 +20°C° 0 mm 3 mps 622 mmHg 60%
08:00 +22°C° 0 mm 3 mps 623 mmHg 50%
09:00 +25°C° 0 mm 3 mps 623 mmHg 43%
10:00 +27°C° 0 mm 3 mps 623 mmHg 36%
11:00 +29°C° 0 mm 3 mps 623 mmHg 29%
12:00 +30°C° 0 mm 3 mps 622 mmHg 27%
13:00 +31°C° 0 mm 3 mps 622 mmHg 25%
14:00 +33°C° 0 mm 3 mps 621 mmHg 23%
15:00 +32°C° 0 mm 4 mps 621 mmHg 25%
16:00 +30°C° 0 mm 5 mps 621 mmHg 27%
17:00 +29°C° 0 mm 5 mps 620 mmHg 29%
18:00 +27°C° 0 mm 5 mps 621 mmHg 35%
19:00 +25°C° 0 mm 5 mps 621 mmHg 42%
20:00 +22°C° 0 mm 5 mps 621 mmHg 48%
21:00 +21°C° 0 mm 4 mps 621 mmHg 53%
22:00 +20°C° 0 mm 3 mps 621 mmHg 59%
23:00 +19°C° 0 mm 2 mps 621 mmHg 64%

17 June, Thursday

Time Temperature Precipitation Wind Pressure Humidity
00:00 +19°C° 0 mm 2 mps 620 mmHg 67%
01:00 +18°C° 0 mm 2 mps 620 mmHg 71%
02:00 +17°C° 0 mm 2 mps 620 mmHg 74%
03:00 +18°C° 0 mm 1 mps 620 mmHg 77%
04:00 +18°C° 0 mm 1 mps 620 mmHg 80%
05:00 +16°C° 0 mm 1 mps 620 mmHg 82%
06:00 +18°C° 0 mm 2 mps 620 mmHg 74%
07:00 +19°C° 0 mm 2 mps 621 mmHg 66%
08:00 +21°C° 0 mm 3 mps 622 mmHg 58%
09:00 +24°C° 0 mm 3 mps 622 mmHg 52%
10:00 +25°C° 0 mm 3 mps 622 mmHg 46%
11:00 +27°C° 0 mm 3 mps 622 mmHg 40%
12:00 +27°C° 0 mm 4 mps 621 mmHg 40%
13:00 +27°C° 0 mm 4 mps 621 mmHg 40%
14:00 +27°C° 0 mm 4 mps 620 mmHg 41%
15:00 +27°C° 0 mm 4 mps 620 mmHg 41%
16:00 +27°C° 0 mm 4 mps 620 mmHg 42%
17:00 +26°C° 0 mm 3 mps 619 mmHg 43%
18:00 +25°C° 0 mm 4 mps 620 mmHg 48%
19:00 +22°C° 0 mm 4 mps 620 mmHg 53%
20:00 +21°C° 0 mm 4 mps 620 mmHg 59%
21:00 +20°C° 0 mm 3 mps 620 mmHg 62%
22:00 +19°C° 0 mm 3 mps 620 mmHg 66%
23:00 +19°C° 0 mm 2 mps 620 mmHg 69%

18 June, Friday

Time Temperature Precipitation Wind Pressure Humidity
00:00 +18°C° 0 mm 2 mps 620 mmHg 72%
01:00 +18°C° 0 mm 2 mps 619 mmHg 74%
02:00 +18°C° 0 mm 1 mps 619 mmHg 76%
03:00 +18°C° 0 mm 1 mps 619 mmHg 78%
04:00 +18°C° 0 mm 1 mps 619 mmHg 80%
05:00 +16°C° 0 mm 1 mps 619 mmHg 82%
06:00 +18°C° 0 mm 2 mps 620 mmHg 73%
07:00 +20°C° 0 mm 2 mps 621 mmHg 65%
08:00 +21°C° 0 mm 3 mps 622 mmHg 57%
09:00 +24°C° 0 mm 3 mps 622 mmHg 50%
10:00 +26°C° 0 mm 3 mps 622 mmHg 43%
11:00 +28°C° 0 mm 3 mps 622 mmHg 36%
12:00 +29°C° 0 mm 3 mps 621 mmHg 35%
13:00 +29°C° 0 mm 3 mps 621 mmHg 35%
14:00 +29°C° 0 mm 3 mps 620 mmHg 34%
15:00 +27°C° 0.3 mm 3 mps 620 mmHg 44%
16:00 +25°C° 0.3 mm 2 mps 619 mmHg 53%
17:00 +23°C° 0.3 mm 2 mps 619 mmHg 63%
18:00 +21°C° 0.5 mm 2 mps 620 mmHg 68%
19:00 +22°C° 0.5 mm 1 mps 620 mmHg 72%
20:00 +21°C° 0.5 mm 1 mps 621 mmHg 76%
21:00 +21°C° 0.2 mm 1 mps 621 mmHg 78%
22:00 +20°C° 0.2 mm 1 mps 621 mmHg 80%
23:00 +20°C° 0.2 mm 1 mps 621 mmHg 82%
Show more